TimeCDT,TemperatureF,Dew PointF,Humidity,Sea Level PressureIn,VisibilityMPH,Wind Direction,Wind SpeedMPH,Gust SpeedMPH,PrecipitationIn,Events,Conditions,WindDirDegrees,DateUTC
12:49 AM,77.0,71.6,83,29.72,10.0,SSE,8.1,-,N/A,Thunderstorm,Mostly Cloudy,160,2013-06-26 05:49:00
12:52 AM,77.0,72.0,84,29.70,10.0,SSE,8.1,-,N/A,Thunderstorm,Mostly Cloudy,160,2013-06-26 05:52:00
1:04 AM,77.0,73.4,89,29.72,10.0,SSE,10.4,-,N/A,,Mostly Cloudy,160,2013-06-26 06:04:00
1:22 AM,77.0,73.4,89,29.72,10.0,SSE,10.4,-,N/A,Thunderstorm,Overcast,160,2013-06-26 06:22:00
1:37 AM,77.0,73.4,89,29.71,10.0,SSE,12.7,-,N/A,Thunderstorm,Overcast,160,2013-06-26 06:37:00
1:52 AM,77.0,73.0,88,29.68,10.0,South,10.4,-,N/A,,Mostly Cloudy,170,2013-06-26 06:52:00
2:27 AM,75.2,73.4,94,29.69,10.0,South,10.4,-,N/A,Thunderstorm,Overcast,180,2013-06-26 07:27:00
2:52 AM,66.9,64.9,93,29.72,2.5,NE,13.8,40.3,0.12,Rain-Thunderstorm,Heavy Thunderstorms and Rain,40,2013-06-26 07:52:00
3:02 AM,66.2,64.4,94,29.74,1.0,North,21.9,29.9,0.27,Rain-Thunderstorm,Heavy Thunderstorms and Rain,360,2013-06-26 08:02:00
3:12 AM,66.2,64.4,94,29.74,1.0,North,24.2,29.9,0.56,Rain-Thunderstorm,Heavy Thunderstorms and Rain,10,2013-06-26 08:12:00
3:19 AM,66.2,64.4,94,29.76,0.8,NNE,26.5,32.2,0.78,Rain-Thunderstorm,Heavy Thunderstorms and Rain,20,2013-06-26 08:19:00
3:27 AM,66.2,66.2,100,29.74,2.0,NNE,18.4,33.4,0.83,Rain-Thunderstorm,Heavy Thunderstorms and Rain,20,2013-06-26 08:27:00
3:31 AM,66.2,66.2,100,29.75,4.0,NNE,18.4,28.8,0.84,Rain-Thunderstorm,Thunderstorms and Rain,20,2013-06-26 08:31:00
3:43 AM,66.2,64.4,94,29.74,2.5,North,9.2,-,0.98,Rain-Thunderstorm,Heavy Thunderstorms and Rain,360,2013-06-26 08:43:00
3:52 AM,66.9,64.9,93,29.71,4.0,NNE,9.2,-,1.03,Rain-Thunderstorm,Thunderstorms and Rain,20,2013-06-26 08:52:00
4:48 AM,68.0,64.4,88,29.74,10.0,SE,4.6,-,0.01,,Overcast,130,2013-06-26 09:48:00
4:52 AM,66.9,64.9,93,29.71,10.0,SSE,3.5,-,0.01,,Overcast,150,2013-06-26 09:52:00
5:52 AM,66.9,66.0,97,29.71,10.0,SSW,3.5,-,0.05,,Overcast,200,2013-06-26 10:52:00
6:52 AM,66.9,66.0,97,29.73,10.0,South,6.9,-,0.02,,Overcast,170,2013-06-26 11:52:00
7:52 AM,68.0,64.9,90,29.73,10.0,South,5.8,-,N/A,,Overcast,170,2013-06-26 12:52:00
8:52 AM,71.1,66.0,84,29.73,10.0,South,6.9,-,N/A,,Mostly Cloudy,180,2013-06-26 13:52:00
9:52 AM,73.0,66.9,81,29.73,10.0,South,5.8,-,N/A,,Mostly Cloudy,190,2013-06-26 14:52:00
10:52 AM,77.0,68.0,74,29.75,10.0,East,4.6,-,N/A,,Mostly Cloudy,80,2013-06-26 15:52:00
11:52 AM,78.1,71.1,79,29.72,10.0,SE,8.1,-,N/A,,Partly Cloudy,130,2013-06-26 16:52:00
12:52 PM,80.1,71.1,74,29.74,10.0,Calm,Calm,-,N/A,,Scattered Clouds,0,2013-06-26 17:52:00
1:48 PM,82.4,73.4,74,29.76,10.0,Variable,4.6,-,N/A,,Mostly Cloudy,0,2013-06-26 18:48:00
1:52 PM,82.0,72.0,71,29.73,10.0,Calm,Calm,-,N/A,,Mostly Cloudy,0,2013-06-26 18:52:00
2:52 PM,84.0,72.0,67,29.73,10.0,SW,6.9,-,N/A,,Mostly Cloudy,230,2013-06-26 19:52:00
3:52 PM,82.0,73.0,74,29.74,10.0,WSW,4.6,-,N/A,,Mostly Cloudy,250,2013-06-26 20:52:00
4:52 PM,84.0,73.9,72,29.74,10.0,Calm,Calm,-,N/A,,Partly Cloudy,0,2013-06-26 21:52:00
5:03 PM,84.2,73.4,70,29.76,10.0,WNW,3.5,-,N/A,,Scattered Clouds,290,2013-06-26 22:03:00
5:30 PM,82.4,75.2,79,29.76,9.0,West,3.5,-,N/A,,Mostly Cloudy,280,2013-06-26 22:30:00
5:52 PM,82.0,75.9,82,29.74,9.0,WNW,3.5,-,N/A,,Mostly Cloudy,290,2013-06-26 22:52:00
6:11 PM,82.4,77.0,84,29.75,7.0,WSW,3.5,-,N/A,,Scattered Clouds,240,2013-06-26 23:11:00
6:52 PM,82.9,75.0,77,29.72,9.0,West,6.9,-,0.00,,Partly Cloudy,270,2013-06-26 23:52:00
7:52 PM,81.0,75.9,85,29.73,8.0,West,4.6,-,N/A,,Clear,270,2013-06-27 00:52:00
8:52 PM,80.1,75.9,87,29.75,7.0,Calm,Calm,-,N/A,,Partly Cloudy,0,2013-06-27 01:52:00
9:52 PM,78.1,75.0,90,29.77,7.0,NNW,3.5,-,N/A,,Scattered Clouds,330,2013-06-27 02:52:00
10:52 PM,77.0,72.0,84,29.78,10.0,NW,8.1,-,N/A,,Clear,310,2013-06-27 03:52:00
11:52 PM,73.9,70.0,87,29.78,10.0,NW,8.1,-,N/A,,Clear,310,2013-06-27 04:52:00